• In Belarus
  • List of Countries
  • For 7 days
  • Water Temperature
  • Weather Map
  • Weather Widgets
  • user-avatar
    Login

    Hourly Weather Gunib

    Today, 22 November, Friday

    Time Temperature Precipitation Wind Pressure Humidity
    00:00 -2°C° 0.2 mm 1 mps 669 mmHg 92%
    01:00 -2°C° 0.2 mm 1 mps 669 mmHg 92%
    02:00 -3°C° 0.2 mm 1 mps 669 mmHg 93%
    03:00 -5°C° 0 mm 2 mps 669 mmHg 89%
    04:00 -3°C° 0.1 mm 1 mps 669 mmHg 89%
    05:00 -3°C° 0.1 mm 1 mps 670 mmHg 90%
    06:00 -3°C° 0.1 mm 1 mps 670 mmHg 90%
    07:00 -2°C° 0.2 mm 1 mps 670 mmHg 88%
    08:00 -2°C° 0.2 mm 1 mps 670 mmHg 86%
    09:00 -2°C° 0.2 mm 1 mps 671 mmHg 84%
    10:00 -3°C° 0.1 mm 2 mps 671 mmHg 81%
    11:00 -3°C° 0.1 mm 2 mps 671 mmHg 78%
    12:00 -2°C° 0.1 mm 2 mps 671 mmHg 75%
    13:00 -2°C° 0.1 mm 2 mps 671 mmHg 78%
    14:00 -3°C° 0.1 mm 2 mps 671 mmHg 81%
    15:00 -3°C° 0.1 mm 2 mps 670 mmHg 83%
    16:00 -4°C° 0.1 mm 2 mps 670 mmHg 86%
    17:00 -3°C° 0.1 mm 1 mps 670 mmHg 89%
    18:00 -3°C° 0.1 mm 1 mps 670 mmHg 92%
    19:00 -4°C° 0 mm 1 mps 671 mmHg 91%
    20:00 -4°C° 0 mm 1 mps 671 mmHg 90%
    21:00 -4°C° 0 mm 1 mps 671 mmHg 90%
    22:00 -4°C° 0 mm 1 mps 670 mmHg 88%
    23:00 -4°C° 0 mm 1 mps 670 mmHg 87%

    Tomorrow, 23 November, Saturday

    Time Temperature Precipitation Wind Pressure Humidity
    00:00 -4°C° 0 mm 1 mps 670 mmHg 86%
    01:00 -4°C° 0 mm 1 mps 670 mmHg 84%
    02:00 -4°C° 0 mm 1 mps 670 mmHg 81%
    03:00 -4°C° 0 mm 1 mps 670 mmHg 79%
    04:00 -4°C° 0 mm 1 mps 670 mmHg 76%
    05:00 -4°C° 0 mm 1 mps 670 mmHg 73%
    06:00 -5°C° 0 mm 0 mps 670 mmHg 69%
    07:00 -4°C° 0 mm 0 mps 670 mmHg 64%
    08:00 -3°C° 0 mm 0 mps 671 mmHg 59%
    09:00 -2°C° 0 mm 0 mps 671 mmHg 53%
    10:00 0°C° 0 mm 1 mps 671 mmHg 52%
    11:00 +1°C° 0 mm 1 mps 671 mmHg 51%
    12:00 +2°C° 0 mm 1 mps 671 mmHg 49%
    13:00 +2°C° 0 mm 1 mps 671 mmHg 52%
    14:00 +2°C° 0 mm 1 mps 670 mmHg 55%
    15:00 +2°C° 0 mm 1 mps 670 mmHg 57%
    16:00 +1°C° 0 mm 1 mps 670 mmHg 61%
    17:00 0°C° 0 mm 1 mps 670 mmHg 64%
    18:00 -1°C° 0 mm 1 mps 669 mmHg 68%
    19:00 -2°C° 0 mm 0 mps 669 mmHg 63%
    20:00 -2°C° 0 mm 0 mps 669 mmHg 59%
    21:00 -2°C° 0 mm 0 mps 669 mmHg 55%
    22:00 -1°C° 0 mm 1 mps 669 mmHg 51%
    23:00 -1°C° 0 mm 1 mps 669 mmHg 48%

    Day after tomorrow, 24 November, Sunday

    Time Temperature Precipitation Wind Pressure Humidity
    00:00 -1°C° 0 mm 1 mps 669 mmHg 44%
    01:00 -1°C° 0 mm 1 mps 669 mmHg 42%
    02:00 -1°C° 0 mm 1 mps 669 mmHg 40%
    03:00 0°C° 0 mm 1 mps 668 mmHg 38%
    04:00 -1°C° 0 mm 1 mps 668 mmHg 36%
    05:00 -1°C° 0 mm 1 mps 668 mmHg 35%
    06:00 -1°C° 0 mm 1 mps 668 mmHg 33%
    07:00 +1°C° 0 mm 1 mps 668 mmHg 32%
    08:00 +2°C° 0 mm 1 mps 669 mmHg 31%
    09:00 +3°C° 0 mm 1 mps 670 mmHg 30%
    10:00 +4°C° 0 mm 1 mps 669 mmHg 30%
    11:00 +5°C° 0 mm 1 mps 669 mmHg 30%
    12:00 +6°C° 0 mm 1 mps 669 mmHg 30%
    13:00 +5°C° 0 mm 1 mps 669 mmHg 36%
    14:00 +5°C° 0 mm 1 mps 669 mmHg 42%
    15:00 +4°C° 0 mm 1 mps 668 mmHg 47%
    16:00 +3°C° 0 mm 1 mps 668 mmHg 52%
    17:00 +2°C° 0 mm 1 mps 668 mmHg 57%
    18:00 -1°C° 0 mm 0 mps 668 mmHg 61%
    19:00 -1°C° 0 mm 0 mps 668 mmHg 58%
    20:00 +1°C° 0 mm 1 mps 668 mmHg 55%
    21:00 +1°C° 0 mm 1 mps 667 mmHg 51%
    22:00 +1°C° 0 mm 1 mps 667 mmHg 49%
    23:00 0°C° 0 mm 1 mps 667 mmHg 46%

    25 November, Monday

    Time Temperature Precipitation Wind Pressure Humidity
    00:00 0°C° 0 mm 1 mps 667 mmHg 44%
    01:00 0°C° 0 mm 1 mps 667 mmHg 42%
    02:00 0°C° 0 mm 1 mps 666 mmHg 41%
    03:00 0°C° 0 mm 1 mps 666 mmHg 39%
    04:00 0°C° 0 mm 1 mps 666 mmHg 38%
    05:00 0°C° 0 mm 1 mps 666 mmHg 37%
    06:00 0°C° 0 mm 1 mps 666 mmHg 35%
    07:00 +1°C° 0 mm 1 mps 666 mmHg 35%
    08:00 +2°C° 0 mm 1 mps 666 mmHg 34%
    09:00 +3°C° 0 mm 1 mps 667 mmHg 33%
    10:00 +4°C° 0 mm 1 mps 667 mmHg 34%
    11:00 +5°C° 0 mm 1 mps 667 mmHg 34%
    12:00 +6°C° 0 mm 1 mps 667 mmHg 35%
    13:00 +5°C° 0 mm 1 mps 666 mmHg 39%
    14:00 +5°C° 0 mm 1 mps 666 mmHg 43%
    15:00 +5°C° 0 mm 1 mps 666 mmHg 47%
    16:00 +4°C° 0 mm 1 mps 665 mmHg 52%
    17:00 +3°C° 0 mm 1 mps 665 mmHg 56%
    18:00 0°C° 0 mm 0 mps 665 mmHg 60%
    19:00 +1°C° 0 mm 1 mps 665 mmHg 58%
    20:00 +1°C° 0 mm 1 mps 665 mmHg 55%
    21:00 +2°C° 0 mm 1 mps 665 mmHg 53%
    22:00 +1°C° 0 mm 1 mps 665 mmHg 51%
    23:00 +1°C° 0 mm 1 mps 665 mmHg 50%

    26 November, Tuesday

    Time Temperature Precipitation Wind Pressure Humidity
    00:00 +1°C° 0 mm 1 mps 664 mmHg 48%
    01:00 +1°C° 0 mm 1 mps 664 mmHg 47%
    02:00 +1°C° 0 mm 1 mps 664 mmHg 47%
    03:00 +1°C° 0 mm 1 mps 664 mmHg 46%
    04:00 +1°C° 0 mm 1 mps 664 mmHg 48%
    05:00 +1°C° 0 mm 1 mps 664 mmHg 49%
    06:00 +1°C° 0 mm 1 mps 664 mmHg 50%
    07:00 +2°C° 0 mm 1 mps 664 mmHg 49%
    08:00 +3°C° 0 mm 1 mps 664 mmHg 48%
    09:00 +4°C° 0 mm 1 mps 665 mmHg 47%
    10:00 +6°C° 0 mm 1 mps 665 mmHg 45%
    11:00 +7°C° 0 mm 1 mps 665 mmHg 43%
    12:00 +8°C° 0 mm 1 mps 665 mmHg 41%
    13:00 +7°C° 0 mm 1 mps 665 mmHg 45%
    14:00 +7°C° 0 mm 1 mps 664 mmHg 48%
    15:00 +7°C° 0 mm 1 mps 664 mmHg 52%
    16:00 +6°C° 0 mm 1 mps 664 mmHg 55%
    17:00 +4°C° 0 mm 2 mps 664 mmHg 58%
    18:00 +2°C° 0 mm 2 mps 663 mmHg 62%
    19:00 +2°C° 0 mm 2 mps 663 mmHg 61%
    20:00 +2°C° 0 mm 2 mps 663 mmHg 60%
    21:00 +2°C° 0 mm 2 mps 663 mmHg 59%
    22:00 +3°C° 0 mm 2 mps 663 mmHg 59%
    23:00 +3°C° 0 mm 2 mps 663 mmHg 59%

    27 November, Wednesday

    Time Temperature Precipitation Wind Pressure Humidity
    00:00 +3°C° 0 mm 2 mps 662 mmHg 58%
    01:00 +3°C° 0 mm 2 mps 662 mmHg 59%
    02:00 +3°C° 0 mm 2 mps 662 mmHg 59%
    03:00 +3°C° 0 mm 2 mps 662 mmHg 59%
    04:00 +3°C° 0 mm 2 mps 662 mmHg 61%
    05:00 +3°C° 0 mm 2 mps 662 mmHg 62%
    06:00 +3°C° 0 mm 2 mps 662 mmHg 63%
    07:00 +5°C° 0 mm 1 mps 662 mmHg 62%
    08:00 +6°C° 0 mm 1 mps 662 mmHg 62%
    09:00 +6°C° 0 mm 1 mps 663 mmHg 61%
    10:00 +7°C° 0 mm 1 mps 663 mmHg 60%
    11:00 +8°C° 0 mm 1 mps 662 mmHg 58%
    12:00 +8°C° 0 mm 1 mps 662 mmHg 57%
    13:00 +8°C° 0 mm 1 mps 662 mmHg 61%
    14:00 +8°C° 0 mm 1 mps 662 mmHg 65%
    15:00 +7°C° 0 mm 1 mps 662 mmHg 69%
    16:00 +6°C° 0 mm 1 mps 662 mmHg 73%
    17:00 +5°C° 0 mm 1 mps 662 mmHg 77%
    18:00 +4°C° 0 mm 1 mps 661 mmHg 82%
    19:00 +4°C° 0 mm 1 mps 662 mmHg 82%
    20:00 +4°C° 0 mm 1 mps 662 mmHg 82%
    21:00 +4°C° 0 mm 1 mps 662 mmHg 82%
    22:00 +4°C° 0 mm 1 mps 662 mmHg 81%
    23:00 +4°C° 0 mm 1 mps 662 mmHg 80%
    Show more